Weather Roundup
Issued by NWS Chicago, IL

Home | Current Version | Previous Version | Text Only | Print | Product List | Glossary Off
Versions: 1 2 3 4 5 6 7 8 9 10 11 12 13 14 15 16 17 18 19 20 21 22 23 24 25 26 27 28 29 30 31 32 33 34 35 36 37 38 39 40 41 42 43 44 45 46 47 48 49 50

000
NZUS59 KLOT 290208
HRRLOT

CHICAGO AREA WEATHER ROUNDUP
NATIONAL WEATHER SERVICE CHICAGO/ROMEOVILLE IL
900 PM CDT THU APR 28 2016

NOTE: "FAIR" INDICATES FEW OR NO CLOUDS BELOW 12,000 FEET WITH NO
SIGNIFICANT WEATHER AND/OR OBSTRUCTIONS TO VISIBILITY.

* THESE STATIONS ARE NOT UNDER NWS QUALITY CONTROL. THEY ALSO MAY NOT
  REPORT WEATHER SUCH AS PRECIPITATION OR FOG.

ILZ005-006-012>014-019>023-290300-
NORTHEAST ILLINOIS

CITY           SKY/WX    TMP DP  RH WIND       PRES   REMARKS
OHARE          CLOUDY    43  40  89 N8        29.99R
MIDWAY         CLOUDY    46  40  79 N9        29.99R
AURORA         CLOUDY    45  42  89 NE8       30.00R FOG
LANSING*       CLOUDY    46  42  86 N6        29.99R
JOLIET*        CLOUDY    49  44  81 NE6       29.99R
WAUKEGAN       CLOUDY    41  39  93 N6        30.01R
DUPAGE AIRPORT CLOUDY    44  39  82 N7        29.99R
WHEELING       CLOUDY    42  39  89 N8        30.01R
KANKAKEE*      CLOUDY    51  46  84 NE6       29.98R
MORRIS*        CLOUDY    48  44  84 NE3       29.98R
LEWIS AIRPORT* CLOUDY    46  41  81 NE7       29.99R
$$

WIZ051-052-058>065-066-070>072-290300-
SOUTHEAST WISCONSIN

CITY           SKY/WX    TMP DP  RH WIND       PRES   REMARKS
MILWAUKEE      CLOUDY    41  37  86 NE8       30.03R
KENOSHA*       CLOUDY    41  38  89 NE7       30.02R
RACINE*        CLOUDY    41  37  86 NE10      30.03S
BURLINGTON     CLOUDY    38  38  98 NE6       30.02R FOG
WAUKESHA       CLOUDY    37  36  93 NE8       30.03R
WEST BEND      CLOUDY    39  36  87 E6        30.03R
$$

INZ001>003-010>013-019-020-290300-
NORTHWEST INDIANA

CITY           SKY/WX    TMP DP  RH WIND       PRES   REMARKS
GARY*          CLOUDY    46  46 100 N8        29.99R
MICHIGAN CITY* NOT AVBL
RENSSELAER*    NOT AVBL
VALPARAISO     CLOUDY    52  49  89 NW5       29.97R
$$

LMZ740>746-290300-
SOUTHERN LAKE MICHIGAN

STATION/POSITION TIME  SKY/WX   TEMP WIND        PRES    VSBY
                                AIR  DIR/SP/G
                 (UTC)          (F)  (DEG/KT/KT) (MB)    (MI)
HARRISON CRIB    0100            44  360/  9/ 11   N/A
BURNHAM HARBOR   0200            44   10/  8/ 11   N/A
CALUMET HARBOR   0100            44              1014.3R
BURNS HARBOR     0112            46  360/  4/  6 1014.9R
MICHIGAN CITY    0100            47   30/  4/  4   N/A
$$

ABBREVIATIONS USED IN REMARKS
   TC - TEMPERATURE IN CELSIUS
  WCI - WIND CHILL INDEX
   HX - HEAT INDEX
  VSB - VISIBILITY
$$




USA.gov is the U.S. government's official web portal to all federal, state and local government web resources and services.